Notices

What's New in latest Release from April 7th, 2021:

- Updated Glossary, including Speed of Maximum Gust, and Total Hourly Precipitation

- Updated national and regional climate services offices contacts and prices information

- Addition of station inventory lists for 1981-2010, 1971-2000, and 1961-1990 Normals.

If you haven't already, please take our survey and provide feedback about our website: https://eccc.sondage-survey.ca/f/LanguageSelection.aspx?s=442ca660-fcf1-47c0-95a9-59707d6fd709

Hourly Data Report for February 15, 2017

TORONTO INTL A
ONTARIO

43°40'36.000" N
79°37'50.000" W
173.40 m
6158731
71624
YYZ

Download Data

Hourly Data (February 2017)
Hourly Data Report for February 15, 2017
TIME
LST
Temp Definition
°C
Dew Point Definition
°C
Rel Hum Definition
%
Precip. Amount Definition
mm

Wind Dir Definition
10's deg

Wind Spd Definition
km/h
Visibility Definition
km
Stn Press Definition
kPa
Hmdx Definition


Wind Chill Definition


Weather Definition


00:00 2.1 -0.7 82   24 20 24.1 97.78     LegendNANA
01:00 1.2 -0.7 87   26 10 24.1 97.75     Cloudy
02:00 1.2 -2.6 76   30 13 24.1 97.72     LegendNANA
03:00 0.5 -2.6 80   31 13 24.1 97.72     LegendNANA
04:00 -0.7 -4.1 78   32 15 24.1 97.68   -5 Mostly Cloudy
05:00 -0.8 -4.0 79   30 12 24.1 97.72   -5 LegendNANA
06:00 -0.4 -3.8 78   30 20 24.1 97.72   -6 LegendNANA
07:00 -0.4 -4.1 76   29 15 24.1 97.72   -5 Mostly Cloudy
08:00 -0.4 -4.3 75   28 12 24.1 97.76   -4 LegendNANA
09:00 -1.5 -5.4 75   28 28 24.1 97.79   -8 LegendNANA
10:00 0.2 -4.5 71   27 19 24.1 97.77     Mostly Cloudy
11:00 0.7 -3.6 73   31 23 24.1 97.80     Snow
12:00 0.7 -4.7 67   33 26 24.1 97.86     LegendNANA
13:00 0.2 -4.3 72   34 25 12.9 97.86     Mostly Cloudy
14:00 -0.1 -5.9 65   32 39 24.1 97.89   -7 LegendNANA
15:00 -1.0 -6.2 68   30 34 24.1 97.96   -8 LegendNANA
16:00 -2.0 -7.5 66   31 36 24.1 98.02   -10 Cloudy
17:00 -3.0 -7.7 70   30 34 24.1 98.11   -11 LegendNANA
18:00 -3.9 -8.6 70   30 37 24.1 98.21   -12 LegendNANA
19:00 -4.1 -9.2 68   31 29 24.1 98.28   -12 Cloudy
20:00 -4.7 -10.5 64   30 32 24.1 98.33   -13 LegendNANA
21:00 -5.2 -10.8 65   30 31 24.1 98.38   -13 LegendNANA
22:00 -5.1 -10.5 66   31 28 24.1 98.37   -13 Cloudy
23:00 -5.3 -10.7 66   31 23 24.1 98.38   -12 LegendNANA

Notes on Data Quality.

Legend

  • E = Estimated
  • M = Missing
  • NA = Not Available*
  • [empty] = Indicates an unobserved value
Date modified: